Regional Weather Roundup
Issued by NWS

Home | Current Version | Previous Version | Graphics & Text | Print | Product List | Glossary On
Versions: 1 2 3 4 5 6 7 8 9 10 11 12 13 14 15 16 17 18 19 20 21 22 23 24 25 26 27 28 29 30 31 32 33 34 35 36 37 38 39 40 41 42 43 44 45 46 47 48 49 50
000
ASUS44 KMEG 232300
RWRTN
TENNESSEE HOURLY STATE WEATHER ROUNDUP
NATIONAL WEATHER SERVICE MEMPHIS TN
600 PM CDT SAT JUL 23 2016

TNZ002-004-019-021-049-052-054-088>092-240000-
WEST TENNESSEE

CITY           SKY/WX    TMP DP  RH WIND       PRES   REMARKS
MEMPHIS INTL   CLOUDY    86  74  67 CALM      29.93S HX  94
NWS MEMPHIS      N/A     85 N/A N/A MISG        N/A
JACKSON        MOSUNNY   90  75  61 SW3       29.92F HX 100
DYERSBURG      CLOUDY    79  75  89 MISG      29.91F
PARIS          SUNNY     90  73  58 E5        29.93S HX  98
LEXINGTON      SUNNY     81  79  94 CALM      29.93S
$$

TNZ008-025-027-028-033-062-065-066-240000-
NORTH MIDDLE TENNESSEE

CITY           SKY/WX    TMP DP  RH WIND       PRES   REMARKS
NASHVILLE      PTSUNNY   90  69  50 CALM      29.93F HX  94
CLARKSVILLE    MOSUNNY   92  73  53 N5        29.91F HX 100
COOKEVILLE     MOSUNNY   84  75  74 SW14      30.01R HX  92
CROSSVILLE     CLOUDY    77  70  79 SE6       30.08R
$$

TNZ061-075-076-078-094-096-097-240000-
SOUTH MIDDLE TENNESSEE

CITY           SKY/WX    TMP DP  RH WIND       PRES   REMARKS
TULLAHOMA        N/A     75  73  94 SW9       30.04R
COLUMBIA       SUNNY     88  81  79 SW3       29.94F HX 105
$$

TNZ017-018-042-046-047-240000-
NORTHEAST TENNESSEE

CITY           SKY/WX    TMP DP  RH WIND       PRES   REMARKS
TRI CITIES     PTSUNNY   91  66  43 E7        30.01R THUNDER HX  93
$$

TNZ012-013-036-069-073-074-240000-
CENTRAL EAST TENNESSEE

CITY           SKY/WX    TMP DP  RH WIND       PRES   REMARKS
KNOXVILLE      CLOUDY    79  68  69 SW8       30.00R
OAK RIDGE      CLOUDY    79  71  76 VRB7G18   30.05R
GATLINBURG     MOSUNNY   82  70  65 S9        30.01R
$$

TNZ083-085-099-240000-
SOUTHEAST TENNESSEE

CITY           SKY/WX    TMP DP  RH WIND       PRES   REMARKS
CHATTANOOGA    CLOUDY    86  69  56 SW7       29.99R HX  90
$$

SKY/WX REPORTED AS FAIR MEANS FEW OR NO CLOUDS BELOW
12 THOUSAND FEET.





USA.gov is the U.S. government's official web portal to all federal, state and local government web resources and services.